User: anonymous   Login
Location: Unspecified
(0.0000°N, 0.0000°E)
Time: 07:34:06
(UTC+00:00)
Language:

UFO F7 - Orbit

View from above orbital plane
View from above orbital plane
View from above satellite
View from above satellite

Ground track
Ground track

The orbit data is extracted from the following two-line orbital elements,

1 23967U 96042A   18350.71912104 +.00000129 +00000-0 +00000-0 0  9992
2 23967 008.8021 029.0564 0005001 346.9417 173.9298 01.00200672082012
Epoch (UTC): 16 December 2018 17:15:32
Eccentricity: 0.0005001
inclination: 8.8021°
perigee height: 35785 km
apogee height: 35827 km
right ascension of ascending node: 29.0564°
argument of perigee: 346.9417°
revolutions per day: 1.00200672
mean anomaly at epoch: 173.9298°
orbit number at epoch: 8201

The dashed part of the orbit path shows where the satellite is in the earth's shadow,  

DLR